Location: Central Coast NSW, Australia
(33.2407°S, 151.4316°E)
Time: 12:40:10
(UTC+10:00)

Hubble Space Telescope - Pass Details

Date: 29 March 2019
Orbit: 537 x 540 km, 28.5° (Epoch: 19 April)

Event Time Altitude Azimuth Distance (km) Brightness Sun altitude
Exits shadow 05:38:22 12° 349° (N) 1,696 3.1 -18.6°
Maximum altitude 05:40:29 16° 22° (NNE) 1,459 3.1 -18.1°
Drops below altitude 10° 05:43:02 10° 60° (ENE) 1,795 4.2 -17.6°
Sets 05:46:01 0° 82° (E) 2,689 5.8 -17.0°
